Weather in Tiksha

Russia / Republic of Karelia     64°06′55″N   32°24′48″E
temp.,
°C
wind,
m/s
gust,
m/s
humid.,
%
clouds,
%
prec.,
mm/h
press.,
hPa
HPBL,
m
20 january, wed
wed2000:00−14n229894 0.1 101123
03:00−15nne229692 0.1 101221
06:00−16n229150 0.0 101220
09:00−16nne129459 0.0 101420
12:00−16n129691 0.0 101521
15:00−15ne129696 0.0 101520
18:00−16ene129880 0.0 101520
21:00−15ene129790 0.0 101529
21 january, thu
thu2100:00−15e2297100 0.0 101538
03:00−14ene1297100 0.0 101537
06:00−15e229896 0.0 101433
09:00−17e239986 0.0 101531
12:00−17e259788 0.0 1016115
15:00−17e279793 0.0 1015153
18:00−17e399596 0.0 1015230
21:00−16ese4119398 0.0 1014381
22 january, fri
fri2200:00−15ese51191100 0.0 1012464
03:00−16ese51286100 0.1 1011477
06:00−15ese61494100 0.6 1008570
09:00−14ese61493100 2.3 1007636
12:00−15se41094100 0.9 1006556
15:00−15ese4893100 1.3 1006458
18:00−16ese4894100 0.1 1005335
21:00−15ese4894100 0.1 1004326
23 january, sat
sat2300:00−14e4994100 0.1 1003347
03:00−13e51094100 0.4 1002386
06:00−12ese51195100 1.9 1000407
09:00−10ese3795100 4.0 999317
12:00−7ese2396100 0.8 999120
15:00−5ne2297100 1.3 99965
18:00−6se119894 0.0 100021
21:00−1ssw279597 0.1 1001239
24 january, sun
sun2400:00−2ssw3892100 0.0 1002287
03:00−7ssw339297 0.0 100383
06:00−6s2393100 0.0 100380
09:00−6sse2495100 0.0 100392
12:00−3se2796100 0.0 1003245
15:000ese4898100 0.3 1001422
18:00+1ese49100100 3.3 999309
21:00+2sse31099100 5.6 998357